User: anonymous   Login
Location: Bowman Observatory
(41.0326°N, 73.6210°W)
Time: 09:49:30
(UTC-04:00)
Language:

Cosmos 2298 Rocket - Orbit

View from above orbital plane
View from above orbital plane
View from above satellite
View from above satellite

Ground track
Ground track

The orbit data is extracted from the following two-line orbital elements,

1 23432U 94083B   14295.13319859  .00000276  00000-0  10989-3 0  9735
2 23432 074.0327 269.8673 0005971 340.6091 093.0309 14.33295861 37450
Epoch (UTC): 22 October 2014 03:11:48
Eccentricity: 0.0005971
inclination: 74.0327°
perigee height: 776 km
apogee height: 785 km
right ascension of ascending node: 269.8673°
argument of perigee: 340.6091°
revolutions per day: 14.33295861
mean anomaly at epoch: 93.0309°
orbit number at epoch: 3745

The dashed part of the orbit path shows where the satellite is in the earth's shadow,  

DLR